Weather History for Ravenna, OH

Change the Weather History Date:

Thursday, December 8, 2011

  Actual Average (KCAK) Record (KCAK)
Temperature  
Mean Temperature 32 °F 33 °F  
Max Temperature 36 °F 39 °F 67 °F (1966)
Min Temperature 29 °F 26 °F 6 °F (1977)
Degree Days  
Heating Degree Days 32 32  
Month to date heating degree days 248  
Since 1 July heating degree days 1507  
Cooling Degree Days 0 0  
Month to date cooling degree days 0  
Year to date cooling degree days 652  
Moisture  
Dew Point 24 °F    
Average Humidity 73    
Maximum Humidity 80    
Minimum Humidity 58    
Precipitation  
Precipitation 0.00 in 0.10 in 1.14 in (1978)
Month to date precipitation 0.79  
Year to date precipitation 37.57  
Snow  
Snow - 0.30 in - ()
Month to date snowfall 2.1  
Since 1 July snowfall 5.5  
Snow Depth -    
Sea Level Pressure  
Sea Level Pressure 30.15 in    
Wind  
Wind Speed 7 mph ()    
Max Wind Speed 14 mph    
Max Gust Speed 20 mph    
Visibility 10.0 miles    
Events      
T = Trace of Precipitation, MM = Missing Value Source: Averaged Metar Reports

Daily Weather History Graph

Daily Weather History Graph

Search for Another Location

Airport:

Trip Planner

Search our weather history database for the weather conditions in past years. The results will help you decide how hot, cold, wet, or windy it might be!

Date:

Astronomy

Dec. 08, 2011 Rise Set
Actual Time 7:37 AM EST 4:55 PM EST
Civil Twilight 7:06 AM EST 5:26 PM EST
Nautical Twilight 6:32 AM EST 6:01 PM EST
Astronomical Twilight 5:58 AM EST 6:34 PM EST
Moon 3:34 PM EST (12/8) 5:48 AM EST (12/8)
Length of Visible Light 10h 20m
Length of Day
9h 18m
Waxing Gibbous, 97% of the Moon is Illuminated
Dec 8
Waxing Gibbous
Dec 10
Full
Dec 17
Last Quarter
Dec 24
New
Jan 1
First Quarter

Hourly Weather History & Observations

Time (EST) Temp. Windchill Dew Point Humidity Pressure Visibility Wind Dir Wind Speed Gust Speed Precip Events Conditions
12:19 AM 29.7 °F 22.0 °F 23.9 °F 79% 29.98 in 10.0 mi WSW 8.1 mph - N/A   Mostly Cloudy
12:39 AM 29.5 °F 23.4 °F 23.9 °F 80% 29.98 in 10.0 mi WSW 5.8 mph - N/A   Scattered Clouds
12:58 AM 29.7 °F 21.3 °F 24.3 °F 80% 29.98 in 10.0 mi WSW 9.2 mph - N/A   Mostly Cloudy
1:19 AM 29.8 °F 19.8 °F 23.4 °F 77% 29.99 in 10.0 mi WSW 12.7 mph - N/A   Overcast
1:39 AM 29.3 °F 20.2 °F 22.8 °F 77% 29.99 in 10.0 mi West 10.4 mph - N/A   Mostly Cloudy
1:58 AM 29.7 °F 21.3 °F 22.5 °F 75% 30.00 in 10.0 mi West 9.2 mph 16.1 mph N/A   Mostly Cloudy
2:19 AM 29.7 °F 19.6 °F 22.8 °F 76% 30.01 in 10.0 mi WSW 12.7 mph 19.6 mph N/A   Overcast
2:39 AM 29.8 °F 19.8 °F 22.8 °F 75% 30.01 in 10.0 mi West 12.7 mph 18.4 mph N/A   Overcast
2:59 AM 30.2 °F 21.9 °F 23.0 °F 75% 30.02 in 10.0 mi West 9.2 mph 16.1 mph N/A   Overcast
3:19 AM 30.2 °F 21.3 °F 23.0 °F 75% 30.03 in 10.0 mi West 10.4 mph - N/A   Overcast
3:39 AM 30.2 °F 20.8 °F 23.0 °F 75% 30.04 in 10.0 mi WSW 11.5 mph 18.4 mph N/A   Overcast
3:59 AM 30.2 °F 21.3 °F 23.2 °F 75% 30.05 in 10.0 mi West 10.4 mph 17.3 mph N/A   Overcast
4:19 AM 30.6 °F 21.2 °F 23.4 °F 75% 30.05 in 10.0 mi WSW 11.5 mph 17.3 mph N/A   Overcast
4:39 AM 30.6 °F 20.2 °F 23.5 °F 75% 30.06 in 10.0 mi West 13.8 mph 18.4 mph N/A   Overcast
4:59 AM 30.6 °F 22.4 °F 23.7 °F 76% 30.07 in 10.0 mi West 9.2 mph 16.1 mph N/A   Overcast
5:19 AM 30.4 °F 21.0 °F 23.7 °F 76% 30.07 in 10.0 mi West 11.5 mph - N/A   Overcast
5:39 AM 30.2 °F 21.9 °F 23.7 °F 77% 30.08 in 10.0 mi WSW 9.2 mph - N/A   Overcast
5:59 AM 30.0 °F 21.1 °F 23.5 °F 77% 30.09 in 10.0 mi WSW 10.4 mph - N/A   Mostly Cloudy
6:19 AM 29.8 °F 22.2 °F 23.7 °F 78% 30.10 in 10.0 mi WSW 8.1 mph - N/A   Scattered Clouds
6:39 AM 29.3 °F 21.5 °F 23.7 °F 80% 30.11 in 10.0 mi WSW 8.1 mph - N/A   Clear
6:59 AM 29.5 °F 21.1 °F 23.5 °F 79% 30.13 in 10.0 mi WSW 9.2 mph - N/A   Scattered Clouds
7:19 AM 29.8 °F 23.0 °F 23.7 °F 78% 30.14 in 10.0 mi WSW 6.9 mph - N/A   Mostly Cloudy
7:39 AM 30.0 °F 22.4 °F 23.9 °F 78% 30.15 in 10.0 mi WSW 8.1 mph - N/A   Overcast
7:58 AM 30.0 °F 22.4 °F 23.9 °F 78% 30.16 in 10.0 mi WSW 8.1 mph - N/A   Overcast
8:19 AM 29.8 °F 22.2 °F 24.1 °F 79% 30.17 in 10.0 mi WSW 8.1 mph - N/A   Overcast
8:39 AM 29.8 °F 21.5 °F 24.1 °F 79% 30.17 in 10.0 mi WSW 9.2 mph - N/A   Mostly Cloudy
8:59 AM 29.8 °F 23.0 °F 24.3 °F 80% 30.17 in 10.0 mi WSW 6.9 mph - N/A   Scattered Clouds
9:19 AM 30.2 °F 21.3 °F 24.4 °F 79% 30.18 in 10.0 mi West 10.4 mph - N/A   Clear
9:39 AM 30.7 °F 22.6 °F 24.4 °F 77% 30.18 in 10.0 mi West 9.2 mph - N/A   Clear
9:59 AM 31.1 °F 23.7 °F 24.4 °F 76% 30.19 in 10.0 mi WSW 8.1 mph - N/A   Scattered Clouds
10:19 AM 31.3 °F 23.9 °F 24.6 °F 76% 30.20 in 10.0 mi WSW 8.1 mph - N/A   Scattered Clouds
10:39 AM 31.1 °F 22.4 °F 24.4 °F 76% 30.21 in 10.0 mi WSW 10.4 mph 16.1 mph N/A   Mostly Cloudy
10:59 AM 31.8 °F 27.3 °F 25.3 °F 77% 30.22 in 10.0 mi WSW 4.6 mph - N/A   Mostly Cloudy
11:19 AM 32.0 °F 25.6 °F 25.0 °F 75% 30.22 in 10.0 mi WSW 6.9 mph - N/A   Mostly Cloudy
11:39 AM 32.7 °F 28.3 °F 24.8 °F 73% 30.21 in 10.0 mi SW 4.6 mph - N/A   Overcast
11:58 AM 34.0 °F 28.8 °F 25.2 °F 70% 30.21 in 10.0 mi SSW 5.8 mph - N/A   Overcast
12:19 PM 34.0 °F 29.8 °F 24.8 °F 69% 30.19 in 10.0 mi WSW 4.6 mph - N/A   Scattered Clouds
12:39 PM 34.9 °F 27.7 °F 22.6 °F 61% 30.19 in 10.0 mi WSW 9.2 mph - N/A   Clear
12:59 PM 35.2 °F 29.5 °F 22.3 °F 59% 30.18 in 10.0 mi WSW 6.9 mph - N/A   Clear
1:19 PM 36.1 °F 29.9 °F 24.3 °F 62% 30.18 in 10.0 mi WSW 8.1 mph - N/A   Clear
1:39 PM 36.7 °F 31.2 °F 23.0 °F 58% 30.18 in 10.0 mi SSW 6.9 mph - N/A   Clear
1:59 PM 36.5 °F 29.7 °F 22.8 °F 58% 30.18 in 10.0 mi SW 9.2 mph - N/A   Clear
2:19 PM 36.5 °F 30.3 °F 23.4 °F 59% 30.18 in 10.0 mi SSW 8.1 mph - N/A   Clear
2:39 PM 36.3 °F 31.6 °F 23.4 °F 59% 30.18 in 10.0 mi South 5.8 mph - N/A   Clear
2:59 PM 36.3 °F 30.8 °F 23.9 °F 61% 30.18 in 10.0 mi SW 6.9 mph - N/A   Scattered Clouds
3:19 PM 36.3 °F 31.6 °F 23.9 °F 61% 30.19 in 10.0 mi SW 5.8 mph - N/A   Clear
3:39 PM 36.5 °F 32.7 °F 23.5 °F 59% 30.19 in 10.0 mi SSW 4.6 mph - N/A   Clear
3:59 PM 35.8 °F 28.8 °F 23.0 °F 60% 30.18 in 10.0 mi SSW 9.2 mph - N/A   Clear
4:19 PM 35.6 °F 30.7 °F 23.5 °F 62% 30.18 in 10.0 mi SSW 5.8 mph - N/A   Clear
4:39 PM 34.9 °F 30.8 °F 23.7 °F 64% 30.19 in 10.0 mi South 4.6 mph - N/A   Clear
4:59 PM 34.7 °F 31.8 °F 24.1 °F 65% 30.19 in 10.0 mi SSW 3.5 mph - N/A   Clear
5:19 PM 33.8 °F 30.8 °F 24.8 °F 70% 30.19 in 10.0 mi SW 3.5 mph - N/A   Clear
5:39 PM 33.1 °F 28.7 °F 25.2 °F 73% 30.19 in 10.0 mi SSW 4.6 mph - N/A   Clear
5:59 PM 32.9 °F 29.8 °F 25.3 °F 74% 30.19 in 10.0 mi SSW 3.5 mph - N/A   Clear
6:19 PM 32.5 °F - 25.7 °F 76% 30.19 in 10.0 mi Calm Calm - N/A   Clear
6:39 PM 32.5 °F 29.3 °F 25.7 °F 76% 30.20 in 10.0 mi SSW 3.5 mph - N/A   Scattered Clouds
6:59 PM 32.5 °F 28.1 °F 25.7 °F 76% 30.20 in 10.0 mi SSW 4.6 mph - N/A   Overcast
7:19 PM 32.5 °F 28.1 °F 25.9 °F 76% 30.21 in 10.0 mi SW 4.6 mph - N/A   Mostly Cloudy
7:39 PM 32.9 °F 28.5 °F 26.1 °F 76% 30.22 in 10.0 mi SW 4.6 mph - N/A   Mostly Cloudy
7:58 PM 32.7 °F 27.3 °F 25.9 °F 76% 30.22 in 10.0 mi SW 5.8 mph - N/A   Mostly Cloudy
8:19 PM 32.7 °F 29.6 °F 25.7 °F 75% 30.22 in 10.0 mi SSW 3.5 mph - N/A   Scattered Clouds
8:39 PM 32.4 °F 26.9 °F 25.7 °F 76% 30.21 in 10.0 mi SW 5.8 mph - N/A   Clear
8:59 PM 32.5 °F 29.3 °F 25.7 °F 76% 30.20 in 10.0 mi SSW 3.5 mph - N/A   Scattered Clouds
9:19 PM 32.5 °F 27.1 °F 25.7 °F 76% 30.21 in 10.0 mi SW 5.8 mph - N/A   Mostly Cloudy
9:39 PM 32.9 °F - 25.7 °F 75% 30.20 in 10.0 mi Calm Calm - N/A   Overcast
9:59 PM 32.9 °F - 25.7 °F 75% 30.20 in 10.0 mi Calm Calm - N/A   Overcast
10:19 PM 33.1 °F - 26.1 °F 75% 30.21 in 10.0 mi Calm Calm - N/A   Overcast
10:39 PM 33.1 °F - 26.2 °F 76% 30.20 in 10.0 mi Calm Calm - N/A   Overcast
11:19 PM 33.3 °F - 26.6 °F 77% 30.21 in 10.0 mi Calm Calm - N/A   Overcast
11:39 PM 33.3 °F 30.2 °F 26.6 °F 77% 30.20 in 10.0 mi SSW 3.5 mph - N/A   Overcast
11:59 PM 33.3 °F - 26.4 °F 76% 30.20 in 10.0 mi Calm Calm - N/A   Overcast